Charleston, SC

4:42 PM EDT on September 28, 2016 (GMT -0400)
Charleston Air Force Base-International

Weather History for KCHS - September, 2013

Change the Weather History Date:

Thursday, September 19, 2013

  Actual Average Record
Temperature  
Mean Temperature 75 °F 75 °F  
Max Temperature 86 °F 84 °F 98 °F (1942)
Min Temperature 63 °F 67 °F 51 °F (1981)
Degree Days  
Heating Degree Days 0 0  
Month to date heating degree days 0 0  
Since 1 July heating degree days 0 0  
Cooling Degree Days 10 10  
Month to date cooling degree days 290 237  
Year to date cooling degree days 2145 2042  
Growing Degree Days 24 (Base 50)    
Moisture  
Dew Point 61 °F    
Average Humidity 62    
Maximum Humidity 84    
Minimum Humidity 40    
Precipitation  
Precipitation 0.00 in 0.20 in 1.92 in (2016)
Month to date precipitation 2.70 4.22  
Year to date precipitation 48.76 39.86  
Sea Level Pressure  
Sea Level Pressure 30.13 in    
Wind  
Wind Speed 5 mph (NE)    
Max Wind Speed 12 mph    
Max Gust Speed 14 mph    
Visibility 10 miles    
Events      
T = Trace of Precipitation, MM = Missing Value Source: NWS Daily Summary

Daily Weather History Graph

Daily Weather History Graph

Search for Another Location

Airport or City:

Trip Planner

Search our weather history database for the weather conditions in past years. The results will help you decide how hot, cold, wet, or windy it might be!

Date:

Astronomy

Sep. 19, 2013 Rise Set
Actual Time 7:06 AM EDT 7:20 PM EDT
Civil Twilight 6:41 AM EDT 7:45 PM EDT
Nautical Twilight 6:12 AM EDT 8:14 PM EDT
Astronomical Twilight 5:43 AM EDT 8:43 PM EDT
Moon 7:22 PM EDT (9/19) 7:11 AM EDT (9/19)
Length of Visible Light 13h 03m
Length of Day
12h 14m
Full, 100% of the Moon is Illuminated
Sep 19
Full
Sep 26
Last Quarter
Oct 4
New
Oct 11
First Quarter
Oct 18
Full

Hourly Weather History & Observations

Time (EDT) Temp. Heat Index Dew Point Humidity Pressure Visibility Wind Dir Wind Speed Gust Speed Precip Events Conditions
12:56 AM 68.0 °F - 59.0 °F 73% 30.16 in 10.0 mi Calm Calm - N/A   Mostly Cloudy
1:56 AM 66.9 °F - 57.0 °F 70% 30.15 in 10.0 mi NNE 5.8 mph - N/A   Scattered Clouds
2:56 AM 68.0 °F - 55.9 °F 65% 30.13 in 10.0 mi NNE 5.8 mph - N/A   Mostly Cloudy
3:56 AM 66.9 °F - 55.9 °F 68% 30.12 in 10.0 mi NNE 6.9 mph - N/A   Mostly Cloudy
4:56 AM 66.0 °F - 57.0 °F 73% 30.12 in 10.0 mi NNE 5.8 mph - N/A   Partly Cloudy
5:56 AM 64.0 °F - 57.0 °F 78% 30.13 in 10.0 mi North 3.5 mph - N/A   Partly Cloudy
6:56 AM 64.0 °F - 57.0 °F 78% 30.14 in 10.0 mi NNE 6.9 mph - N/A   Partly Cloudy
7:56 AM 66.9 °F - 59.0 °F 76% 30.15 in 10.0 mi NNE 5.8 mph - N/A   Partly Cloudy
8:56 AM 71.1 °F - 60.1 °F 68% 30.16 in 10.0 mi NE 6.9 mph - N/A   Partly Cloudy
9:56 AM 75.9 °F - 62.1 °F 62% 30.16 in 10.0 mi NE 8.1 mph - N/A   Partly Cloudy
10:56 AM 80.1 °F 81.5 °F 63.0 °F 56% 30.17 in 10.0 mi North 5.8 mph - N/A   Partly Cloudy
11:56 AM 81.0 °F 82.2 °F 63.0 °F 54% 30.16 in 10.0 mi NNE 4.6 mph - N/A   Partly Cloudy
12:56 PM 82.9 °F 84.0 °F 63.0 °F 51% 30.14 in 10.0 mi Variable 3.5 mph - N/A   Scattered Clouds
1:56 PM 84.0 °F 84.9 °F 63.0 °F 49% 30.13 in 10.0 mi East 5.8 mph - N/A   Scattered Clouds
2:56 PM 84.9 °F 85.0 °F 61.0 °F 44% 30.11 in 10.0 mi NE 5.8 mph - N/A   Scattered Clouds
3:56 PM 84.9 °F 84.2 °F 57.9 °F 40% 30.09 in 10.0 mi Variable 3.5 mph - N/A   Scattered Clouds
4:56 PM 82.9 °F 84.6 °F 64.9 °F 54% 30.09 in 10.0 mi SE 9.2 mph - N/A   Scattered Clouds
5:56 PM 79.0 °F - 64.9 °F 62% 30.09 in 10.0 mi SSE 9.2 mph - N/A   Scattered Clouds
6:56 PM 78.1 °F - 64.9 °F 64% 30.10 in 10.0 mi SSE 8.1 mph - N/A   Mostly Cloudy
7:56 PM 73.9 °F - 64.9 °F 73% 30.10 in 10.0 mi SSE 4.6 mph - N/A   Scattered Clouds
8:56 PM 73.9 °F - 64.9 °F 73% 30.11 in 10.0 mi SE 3.5 mph - N/A   Scattered Clouds
9:56 PM 73.9 °F - 64.9 °F 73% 30.11 in 10.0 mi Calm Calm - N/A   Partly Cloudy
10:56 PM 71.1 °F - 64.9 °F 81% 30.10 in 10.0 mi Calm Calm - N/A   Clear
11:56 PM 70.0 °F - 64.9 °F 84% 30.09 in 10.0 mi Calm Calm - N/A   Clear